| time (UTC) | temp F | wind direction | speed MPH | gust MPH | rain 1hr in | rain 24hr in | rain mn in | humidity % | barometer mb |
| 20260901122324 | 75 | 229 | 5.0 | 7.0 | 0.00 | 0.00 | 0.00 | 91 | 1017.6 |
| 20260901121822 | 75 | 237 | 5.0 | 6.0 | 0.00 | 0.00 | 0.00 | 93 | 1017.5 |
| 20260901121318 | 74 | 234 | 2.0 | 5.0 | 0.00 | 0.00 | 0.00 | 93 | 1017.4 |
| 20260901120813 | 74 | 221 | 5.0 | 6.0 | 0.00 | 0.00 | 0.00 | 93 | 1017.6 |
| 20260901120307 | 74 | 214 | 4.0 | 8.0 | 0.00 | 0.00 | 0.00 | 93 | 1017.5 |
| 20260901115803 | 74 | 228 | 4.0 | 7.0 | 0.00 | 0.00 | 0.00 | 93 | 1017.3 |
| 20260901115258 | 74 | 248 | 4.0 | 7.0 | 0.00 | 0.00 | 0.00 | 94 | 1017.4 |
| 20260901114755 | 74 | 236 | 4.0 | 7.0 | 0.00 | 0.00 | 0.00 | 94 | 1017.4 |
| 20260901114250 | 73 | 228 | 4.0 | 6.0 | 0.00 | 0.00 | 0.00 | 94 | 1017.4 |
| 20260901113748 | 73 | 234 | 3.0 | 6.0 | 0.00 | 0.00 | 0.00 | 95 | 1017.2 |
| 20260901113243 | 73 | 225 | 4.0 | 5.0 | 0.00 | 0.00 | 0.00 | 95 | 1017.1 |
| 20260901112738 | 73 | 238 | 4.0 | 5.0 | 0.00 | 0.00 | 0.00 | 94 | 1017.1 |
| 20260901112237 | 73 | 215 | 3.0 | 3.0 | 0.00 | 0.00 | 0.00 | 94 | 1017.1 |
| 20260901111732 | 73 | 201 | 3.0 | 5.0 | 0.00 | 0.00 | 0.00 | 94 | 1017.1 |
| 20260901111232 | 73 | 221 | 2.0 | 3.0 | 0.00 | 0.00 | 0.00 | 94 | 1017.3 |
| 20260901110726 | 73 | 220 | 2.0 | 3.0 | 0.00 | 0.00 | 0.00 | 94 | 1017.2 |
| 20260901110221 | 73 | 232 | 2.0 | 5.0 | 0.00 | 0.00 | 0.00 | 94 | 1017.1 |
| 20260901105718 | 74 | 212 | 3.0 | 5.0 | 0.00 | 0.00 | 0.00 | 94 | 1017.2 |
| 20260901105217 | 74 | 224 | 4.0 | 5.0 | 0.00 | 0.00 | 0.00 | 93 | 1017.1 |
| 20260901104713 | 74 | 226 | 3.0 | 5.0 | 0.00 | 0.00 | 0.00 | 93 | 1017.1 |
| 20260901104209 | 74 | 221 | 4.0 | 5.0 | 0.00 | 0.00 | 0.00 | 93 | 1017.0 |
| 20260901103708 | 74 | 222 | 4.0 | 5.0 | 0.00 | 0.00 | 0.00 | 93 | 1017.0 |
| 20260901103204 | 74 | 229 | 3.0 | 5.0 | 0.00 | 0.00 | 0.00 | 93 | 1017.1 |
| 20260901102704 | 74 | 234 | 2.0 | 3.0 | 0.00 | 0.00 | 0.00 | 93 | 1017.0 |
| 20260901102203 | 75 | 235 | 2.0 | 5.0 | 0.00 | 0.00 | 0.00 | 93 | 1017.1 |
| 20260901101659 | 75 | 229 | 3.0 | 5.0 | 0.00 | 0.00 | 0.00 | 92 | 1017.0 |
| 20260901101159 | 75 | 204 | 4.0 | 6.0 | 0.00 | 0.00 | 0.00 | 92 | 1017.0 |
| 20260901100653 | 75 | 221 | 6.0 | 7.0 | 0.00 | 0.00 | 0.00 | 92 | 1017.0 |
| 20260901100148 | 75 | 223 | 4.0 | 5.0 | 0.00 | 0.00 | 0.00 | 92 | 1016.8 |
| 20260901095646 | 75 | 235 | 3.0 | 6.0 | 0.00 | 0.00 | 0.00 | 92 | 1016.7 |
| 20260901095144 | 75 | 237 | 5.0 | 7.0 | 0.00 | 0.00 | 0.00 | 92 | 1016.7 |
| 20260901094638 | 74 | 228 | 5.0 | 7.0 | 0.00 | 0.00 | 0.00 | 92 | 1016.7 |
| 20260901094133 | 74 | 243 | 4.0 | 6.0 | 0.00 | 0.00 | 0.00 | 93 | 1016.9 |
| 20260901093627 | 74 | 215 | 3.0 | 5.0 | 0.00 | 0.00 | 0.00 | 93 | 1016.8 |
| 20260901093127 | 74 | 237 | 4.0 | 5.0 | 0.00 | 0.00 | 0.00 | 93 | 1016.9 |
| 20260901092623 | 74 | 230 | 3.0 | 6.0 | 0.00 | 0.00 | 0.00 | 93 | 1016.7 |
| 20260901092119 | 74 | 227 | 4.0 | 5.0 | 0.00 | 0.00 | 0.00 | 93 | 1016.7 |
| 20260901091614 | 74 | 237 | 5.0 | 5.0 | 0.00 | 0.00 | 0.00 | 93 | 1016.4 |
| 20260901091109 | 74 | 221 | 4.0 | 6.0 | 0.00 | 0.00 | 0.00 | 93 | 1016.7 |
| 20260901090609 | 74 | 231 | 3.0 | 5.0 | 0.00 | 0.00 | 0.00 | 93 | 1016.5 |
| 20260901090105 | 74 | 230 | 5.0 | 6.0 | 0.00 | 0.00 | 0.00 | 93 | 1016.5 |
| 20260901085600 | 74 | 210 | 4.0 | 5.0 | 0.00 | 0.00 | 0.00 | 93 | 1016.5 |
| 20260901085056 | 74 | 222 | 5.0 | 7.0 | 0.00 | 0.00 | 0.00 | 93 | 1016.7 |
| 20260901084552 | 74 | 223 | 4.0 | 6.0 | 0.00 | 0.00 | 0.00 | 92 | 1016.6 |
| 20260901084048 | 75 | 232 | 5.0 | 6.0 | 0.00 | 0.00 | 0.00 | 92 | 1016.4 |
| 20260901083548 | 75 | 203 | 4.0 | 7.0 | 0.00 | 0.00 | 0.00 | 92 | 1016.4 |
| 20260901083046 | 75 | 217 | 5.0 | 6.0 | 0.00 | 0.00 | 0.00 | 92 | 1016.3 |
| 20260901082541 | 75 | 216 | 5.0 | 7.0 | 0.00 | 0.00 | 0.00 | 92 | 1016.5 |
| 20260901082037 | 75 | 217 | 5.0 | 6.0 | 0.00 | 0.00 | 0.00 | 92 | 1016.4 |
| 20260901081532 | 75 | 230 | 5.0 | 7.0 | 0.00 | 0.00 | 0.00 | 92 | 1016.4 |
| 20260901081026 | 75 | 217 | 4.0 | 5.0 | 0.00 | 0.00 | 0.00 | 92 | 1016.3 |
| 20260901080525 | 74 | 219 | 5.0 | 6.0 | 0.00 | 0.00 | 0.00 | 92 | 1016.3 |
| 20260901080020 | 75 | 226 | 3.0 | 6.0 | 0.00 | 0.00 | 0.00 | 92 | 1016.6 |
| 20260901075516 | 74 | 242 | 3.0 | 6.0 | 0.00 | 0.00 | 0.00 | 92 | 1016.4 |
| 20260901075015 | 74 | 230 | 2.0 | 5.0 | 0.00 | 0.00 | 0.00 | 92 | 1016.6 |
| 20260901074514 | 74 | 215 | 3.0 | 5.0 | 0.00 | 0.00 | 0.00 | 92 | 1016.5 |
| 20260901074009 | 75 | 215 | 3.0 | 5.0 | 0.00 | 0.00 | 0.00 | 91 | 1016.5 |
| 20260901073506 | 75 | 217 | 3.0 | 5.0 | 0.00 | 0.00 | 0.00 | 91 | 1016.6 |
| 20260901073001 | 75 | 232 | 3.0 | 5.0 | 0.00 | 0.00 | 0.00 | 91 | 1016.4 |
| 20260901072455 | 75 | 245 | 3.0 | 5.0 | 0.00 | 0.00 | 0.00 | 91 | 1016.5 |
| 20260901071951 | 75 | 226 | 4.0 | 7.0 | 0.00 | 0.00 | 0.00 | 90 | 1016.5 |
| 20260901071450 | 75 | 232 | 4.0 | 7.0 | 0.00 | 0.00 | 0.00 | 90 | 1016.5 |
| 20260901070949 | 75 | 221 | 5.0 | 7.0 | 0.00 | 0.00 | 0.00 | 90 | 1016.5 |
| 20260901070445 | 75 | 215 | 4.0 | 6.0 | 0.00 | 0.00 | 0.00 | 90 | 1016.3 |
| 20260901065943 | 75 | 222 | 5.0 | 7.0 | 0.00 | 0.00 | 0.00 | 90 | 1016.5 |
| 20260901065440 | 75 | 214 | 4.0 | 7.0 | 0.00 | 0.00 | 0.00 | 90 | 1016.5 |
| 20260901064934 | 75 | 218 | 5.0 | 6.0 | 0.00 | 0.00 | 0.00 | 90 | 1016.5 |
| 20260901064430 | 75 | 212 | 5.0 | 5.0 | 0.00 | 0.00 | 0.00 | 90 | 1016.4 |
| 20260901063928 | 76 | 213 | 4.0 | 5.0 | 0.00 | 0.00 | 0.00 | 89 | 1016.7 |
| 20260901063424 | 76 | 213 | 5.0 | 6.0 | 0.00 | 0.00 | 0.00 | 88 | 1016.4 |
| 20260901062920 | 76 | 225 | 4.0 | 6.0 | 0.00 | 0.00 | 0.00 | 88 | 1016.3 |
| 20260901062415 | 76 | 214 | 5.0 | 7.0 | 0.00 | 0.00 | 0.00 | 88 | 1016.6 |
| 20260901061911 | 77 | 217 | 4.0 | 6.0 | 0.00 | 0.00 | 0.00 | 87 | 1016.6 |
| 20260901061407 | 77 | 219 | 5.0 | 7.0 | 0.00 | 0.00 | 0.00 | 87 | 1016.6 |
| 20260901060901 | 77 | 222 | 5.0 | 7.0 | 0.00 | 0.00 | 0.00 | 86 | 1016.6 |
| 20260901060357 | 77 | 221 | 6.0 | 9.0 | 0.00 | 0.00 | 0.00 | 86 | 1016.6 |
| 20260901055856 | 77 | 214 | 7.0 | 8.0 | 0.00 | 0.00 | 0.00 | 86 | 1016.8 |
| 20260901055353 | 77 | 212 | 6.0 | 9.0 | 0.00 | 0.00 | 0.00 | 86 | 1016.8 |
| 20260901054849 | 77 | 221 | 5.0 | 7.0 | 0.00 | 0.00 | 0.00 | 87 | 1016.6 |
| 20260901054346 | 77 | 216 | 6.0 | 7.0 | 0.00 | 0.00 | 0.00 | 87 | 1016.6 |
| 20260901053842 | 77 | 219 | 6.0 | 7.0 | 0.00 | 0.00 | 0.00 | 87 | 1016.8 |
| 20260901053337 | 77 | 222 | 6.0 | 8.0 | 0.00 | 0.00 | 0.00 | 87 | 1016.9 |
| 20260901052833 | 77 | 217 | 6.0 | 7.0 | 0.00 | 0.00 | 0.00 | 87 | 1016.9 |
| 20260901052328 | 77 | 212 | 4.0 | 6.0 | 0.00 | 0.00 | 0.00 | 87 | 1016.7 |
| 20260901051826 | 77 | 226 | 6.0 | 6.0 | 0.00 | 0.00 | 0.00 | 87 | 1016.7 |
| 20260901051322 | 77 | 202 | 5.0 | 8.0 | 0.00 | 0.00 | 0.00 | 86 | 1016.8 |
| 20260901050817 | 77 | 216 | 8.0 | 9.0 | 0.00 | 0.00 | 0.00 | 86 | 1017.0 |
| 20260901050312 | 77 | 227 | 7.0 | 8.0 | 0.00 | 0.00 | 0.00 | 86 | 1016.7 |
| 20260901045807 | 78 | 203 | 6.0 | 7.0 | 0.00 | 0.00 | 0.00 | 85 | 1016.7 |
| 20260901045301 | 78 | 221 | 6.0 | 8.0 | 0.00 | 0.00 | 0.00 | 85 | 1016.8 |
| 20260901044752 | 78 | 210 | 7.0 | 7.0 | 0.00 | 0.00 | 0.00 | 85 | 1016.7 |
| 20260901044248 | 78 | 211 | 5.0 | 6.0 | 0.00 | 0.00 | 0.00 | 86 | 1016.8 |
| 20260901043743 | 77 | 202 | 4.0 | 9.0 | 0.00 | 0.00 | 0.00 | 87 | 1016.7 |
| 20260901043239 | 76 | 212 | 5.0 | 6.0 | 0.00 | 0.00 | 0.00 | 89 | 1016.6 |
| 20260901042739 | 76 | 208 | 5.0 | 6.0 | 0.00 | 0.00 | 0.00 | 90 | 1016.8 |
| 20260901042238 | 76 | 214 | 5.0 | 6.0 | 0.00 | 0.00 | 0.00 | 90 | 1016.9 |
| 20260901041734 | 76 | 219 | 4.0 | 5.0 | 0.00 | 0.00 | 0.00 | 89 | 1016.9 |
| 20260901041234 | 76 | 224 | 5.0 | 6.0 | 0.00 | 0.00 | 0.00 | 89 | 1016.8 |
| 20260901040729 | 76 | 204 | 5.0 | 6.0 | 0.00 | 0.00 | 0.00 | 89 | 1016.7 |
| 20260901040228 | 77 | 222 | 5.0 | 7.0 | 0.00 | 0.00 | 0.00 | 88 | 1016.7 |
| 20260901035727 | 77 | 214 | 5.0 | 6.0 | 0.00 | 0.00 | 0.00 | 88 | 1016.8 |
| 20260901035226 | 77 | 204 | 5.0 | 6.0 | 0.00 | 0.00 | 0.00 | 87 | 1016.7 |
| 20260901034725 | 77 | 204 | 4.0 | 7.0 | 0.00 | 0.00 | 0.00 | 86 | 1016.6 |
| 20260901034220 | 77 | 201 | 4.0 | 5.0 | 0.00 | 0.00 | 0.00 | 87 | 1016.8 |
| 20260901033720 | 77 | 198 | 4.0 | 6.0 | 0.00 | 0.00 | 0.00 | 87 | 1016.7 |
| 20260901033219 | 77 | 211 | 3.0 | 6.0 | 0.00 | 0.00 | 0.00 | 87 | 1017.0 |
| 20260901032718 | 77 | 218 | 4.0 | 6.0 | 0.00 | 0.00 | 0.00 | 87 | 1016.7 |
| 20260901032218 | 77 | 215 | 3.0 | 5.0 | 0.00 | 0.00 | 0.00 | 87 | 1016.7 |
| 20260901031714 | 77 | 208 | 3.0 | 5.0 | 0.00 | 0.00 | 0.00 | 86 | 1016.8 |
| 20260901031209 | 77 | 198 | 4.0 | 5.0 | 0.00 | 0.00 | 0.00 | 86 | 1016.8 |
| 20260901030704 | 77 | 218 | 3.0 | 3.0 | 0.00 | 0.00 | 0.00 | 86 | 1016.9 |
| 20260901030159 | 77 | 205 | 5.0 | 6.0 | 0.00 | 0.00 | 0.00 | 86 | 1017.1 |
| 20260901025653 | 77 | 213 | 3.0 | 5.0 | 0.00 | 0.00 | 0.00 | 86 | 1017.1 |
| 20260901025148 | 76 | 211 | 3.0 | 5.0 | 0.00 | 0.00 | 0.00 | 87 | 1017.0 |
| 20260901024648 | 76 | 218 | 3.0 | 3.0 | 0.00 | 0.00 | 0.00 | 88 | 1017.0 |
| 20260901024147 | 76 | 222 | 3.0 | 5.0 | 0.00 | 0.00 | 0.00 | 88 | 1017.0 |
| 20260901023646 | 76 | 209 | 4.0 | 5.0 | 0.00 | 0.00 | 0.00 | 88 | 1017.1 |
| 20260901023141 | 76 | 221 | 4.0 | 5.0 | 0.00 | 0.00 | 0.00 | 87 | 1017.0 |
| 20260901022636 | 76 | 223 | 4.0 | 6.0 | 0.00 | 0.00 | 0.00 | 88 | 1017.2 |
| 20260901022131 | 76 | 216 | 4.0 | 5.0 | 0.00 | 0.00 | 0.00 | 88 | 1016.9 |
| 20260901021627 | 76 | 215 | 5.0 | 5.0 | 0.00 | 0.00 | 0.00 | 88 | 1017.1 |
| 20260901021122 | 75 | 219 | 4.0 | 5.0 | 0.00 | 0.00 | 0.00 | 88 | 1017.0 |
| 20260901020618 | 76 | 212 | 3.0 | 3.0 | 0.00 | 0.00 | 0.00 | 88 | 1017.0 |
| 20260901020113 | 76 | 215 | 3.0 | 5.0 | 0.00 | 0.00 | 0.00 | 87 | 1017.0 |
| 20260901015608 | 76 | 221 | 4.0 | 6.0 | 0.00 | 0.00 | 0.00 | 86 | 1017.0 |
| 20260901015108 | 76 | 216 | 5.0 | 6.0 | 0.00 | 0.00 | 0.00 | 86 | 1016.9 |
| 20260901014603 | 77 | 226 | 3.0 | 3.0 | 0.00 | 0.00 | 0.00 | 85 | 1016.8 |
| 20260901014059 | 77 | 226 | 3.0 | 3.0 | 0.00 | 0.00 | 0.00 | 85 | 1016.8 |
| 20260901013555 | 77 | 215 | 2.0 | 3.0 | 0.00 | 0.00 | 0.00 | 84 | 1016.8 |
| 20260901013050 | 77 | 190 | 2.0 | 3.0 | 0.00 | 0.00 | 0.00 | 85 | 1016.7 |
| 20260901012550 | 76 | 199 | 2.0 | 3.0 | 0.00 | 0.00 | 0.00 | 85 | 1016.4 |
| 20260901012045 | 76 | 213 | 3.0 | 6.0 | 0.00 | 0.00 | 0.00 | 85 | 1016.2 |
| 20260901011541 | 76 | 193 | 2.0 | 3.0 | 0.00 | 0.00 | 0.00 | 85 | 1016.2 |
| 20260901011039 | 76 | 164 | 3.0 | 3.0 | 0.00 | 0.00 | 0.00 | 85 | 1016.1 |
| 20260901010534 | 76 | 205 | 3.0 | 3.0 | 0.00 | 0.00 | 0.00 | 85 | 1015.9 |
| 20260901010033 | 76 | 198 | 3.0 | 5.0 | 0.00 | 0.00 | 0.00 | 86 | 1016.2 |
| 20260901005528 | 76 | 195 | 2.0 | 3.0 | 0.00 | 0.00 | 0.00 | 85 | 1016.4 |
| 20260901005024 | 76 | 197 | 1.0 | 3.0 | 0.00 | 0.00 | 0.00 | 85 | 1016.5 |
| 20260901004523 | 76 | 198 | 2.0 | 2.0 | 0.00 | 0.00 | 0.00 | 86 | 1016.4 |
| 20260901004018 | 76 | 220 | 2.0 | 2.0 | 0.00 | 0.00 | 0.00 | 86 | 1016.6 |
| 20260901003514 | 75 | 214 | 1.0 | 2.0 | 0.00 | 0.00 | 0.00 | 86 | 1016.6 |
| 20260901003011 | 75 | 214 | 1.0 | 2.0 | 0.00 | 0.00 | 0.00 | 87 | 1016.7 |
| 20260901002511 | 75 | 192 | 2.0 | 2.0 | 0.00 | 0.00 | 0.00 | 87 | 1016.6 |
| 20260901002006 | 76 | 203 | 2.0 | 3.0 | 0.00 | 0.00 | 0.00 | 87 | 1016.8 |
| 20260901001501 | 76 | 205 | 2.0 | 2.0 | 0.00 | 0.00 | 0.00 | 86 | 1016.9 |
| 20260901000956 | 76 | 202 | 2.0 | 3.0 | 0.00 | 0.00 | 0.00 | 86 | 1017.0 |
| 20260901000451 | 76 | 205 | 2.0 | 5.0 | 0.00 | 0.00 | 0.00 | 85 | 1017.0 |
| 20260831235950 | 77 | 213 | 2.0 | 3.0 | 0.00 | 0.00 | 0.00 | 83 | 1017.1 |
| 20260831235445 | 76 | 183 | 3.0 | 5.0 | 0.00 | 0.00 | 0.00 | 83 | 1017.1 |
| 20260831234941 | 76 | 190 | 2.0 | 3.0 | 0.00 | 0.00 | 0.00 | 84 | 1017.0 |
| 20260831234435 | 77 | 169 | 4.0 | 6.0 | 0.00 | 0.00 | 0.00 | 84 | 1017.2 |
| 20260831233931 | 77 | 184 | 1.0 | 2.0 | 0.00 | 0.00 | 0.00 | 83 | 1017.2 |
| 20260831233426 | 76 | 173 | 1.0 | 2.0 | 0.00 | 0.00 | 0.00 | 82 | 1017.5 |
| 20260831232921 | 76 | 172 | 1.0 | 2.0 | 0.00 | 0.00 | 0.00 | 80 | 1017.8 |
| 20260831232417 | 76 | 162 | 0.0 | 0.0 | 0.00 | 0.00 | 0.00 | 80 | 1018.8 |
| 20260831231913 | 77 | 178 | 0.0 | 0.0 | 0.00 | 0.00 | 0.00 | 78 | 1018.9 |
| 20260831231409 | 77 | 175 | 0.0 | 0.0 | 0.00 | 0.00 | 0.00 | 78 | 1018.6 |
| 20260831230905 | 77 | 83 | 2.0 | 3.0 | 0.00 | 0.00 | 0.00 | 78 | 1018.6 |
| 20260831230359 | 78 | 38 | 3.0 | 3.0 | 0.00 | 0.00 | 0.00 | 76 | 1018.5 |
| 20260831225853 | 78 | 78 | 2.0 | 3.0 | 0.00 | 0.00 | 0.00 | 77 | 1018.4 |
| 20260831225349 | 78 | 322 | 0.0 | 0.0 | 0.00 | 0.00 | 0.00 | 80 | 1018.6 |
| 20260831224844 | 78 | 179 | 0.0 | 1.0 | 0.00 | 0.00 | 0.00 | 80 | 1018.8 |
| 20260831224338 | 79 | 170 | 0.0 | 0.0 | 0.00 | 0.00 | 0.00 | 81 | 1019.0 |
| 20260831223833 | 79 | 157 | 0.0 | 0.0 | 0.00 | 0.00 | 0.00 | 77 | 1019.0 |
| 20260831223329 | 79 | 154 | 0.0 | 0.0 | 0.00 | 0.00 | 0.00 | 77 | 1019.0 |
| 20260831222826 | 79 | 154 | 0.0 | 1.0 | 0.00 | 0.00 | 0.00 | 77 | 1019.2 |
| 20260831222321 | 80 | 125 | 2.0 | 3.0 | 0.00 | 0.00 | 0.00 | 76 | 1019.2 |
| 20260831221821 | 80 | 215 | 0.0 | 0.0 | 0.00 | 0.00 | 0.00 | 76 | 1019.2 |
| 20260831221317 | 80 | 223 | 0.0 | 0.0 | 0.00 | 0.00 | 0.00 | 75 | 1019.1 |
| 20260831220812 | 79 | 223 | 0.0 | 0.0 | 0.00 | 0.00 | 0.00 | 75 | 1019.2 |
| 20260831220307 | 79 | 218 | 0.0 | 0.0 | 0.00 | 0.00 | 0.00 | 76 | 1019.2 |
| 20260831215802 | 79 | 261 | 0.0 | 1.0 | 0.00 | 0.00 | 0.00 | 76 | 1019.3 |
| 20260831215258 | 80 | 239 | 1.0 | 2.0 | 0.00 | 0.00 | 0.00 | 74 | 1019.3 |
| 20260831214754 | 80 | 228 | 1.0 | 2.0 | 0.00 | 0.00 | 0.00 | 77 | 1019.4 |
| 20260831214251 | 80 | 273 | 2.0 | 2.0 | 0.00 | 0.00 | 0.00 | 78 | 1019.4 |
| 20260831213746 | 81 | 239 | 1.0 | 2.0 | 0.00 | 0.00 | 0.00 | 79 | 1019.1 |
| 20260831213238 | 81 | 255 | 3.0 | 3.0 | 0.00 | 0.00 | 0.00 | 77 | 1018.9 |
| 20260831212738 | 82 | 230 | 3.0 | 5.0 | 0.00 | 0.00 | 0.00 | 75 | 1018.7 |
| 20260831212235 | 82 | 237 | 3.0 | 7.0 | 0.00 | 0.00 | 0.00 | 73 | 1018.3 |
| 20260831211732 | 82 | 248 | 4.0 | 8.0 | 0.00 | 0.00 | 0.00 | 72 | 1018.4 |
| 20260831211228 | 83 | 215 | 5.0 | 7.0 | 0.00 | 0.00 | 0.00 | 71 | 1018.2 |
| 20260831210722 | 84 | 221 | 6.0 | 8.0 | 0.00 | 0.00 | 0.00 | 69 | 1018.1 |
| 20260831210219 | 84 | 215 | 6.0 | 8.0 | 0.00 | 0.00 | 0.00 | 66 | 1017.9 |
| 20260831205718 | 85 | 235 | 3.0 | 7.0 | 0.00 | 0.00 | 0.00 | 66 | 1017.9 |
| 20260831205215 | 85 | 247 | 4.0 | 5.0 | 0.00 | 0.00 | 0.00 | 68 | 1017.8 |
| 20260831204714 | 84 | 238 | 4.0 | 6.0 | 0.00 | 0.00 | 0.00 | 68 | 1018.0 |
| 20260831204214 | 85 | 254 | 6.0 | 7.0 | 0.00 | 0.00 | 0.00 | 65 | 1017.9 |
| 20260831203708 | 84 | 255 | 4.0 | 6.0 | 0.00 | 0.00 | 0.00 | 69 | 1017.9 |
| 20260831203202 | 84 | 237 | 4.0 | 5.0 | 0.00 | 0.00 | 0.00 | 73 | 1018.0 |
| 20260831202700 | 84 | 209 | 5.0 | 7.0 | 0.00 | 0.00 | 0.00 | 73 | 1017.8 |
| 20260831202155 | 84 | 227 | 5.0 | 7.0 | 0.00 | 0.00 | 0.00 | 71 | 1017.9 |
| 20260831201654 | 85 | 249 | 7.0 | 10.0 | 0.00 | 0.00 | 0.00 | 68 | 1017.9 |
| 20260831201149 | 85 | 218 | 9.0 | 10.0 | 0.00 | 0.00 | 0.00 | 69 | 1017.9 |
| 20260831200645 | 85 | 229 | 4.0 | 8.0 | 0.00 | 0.00 | 0.00 | 70 | 1018.0 |
| 20260831200144 | 84 | 219 | 6.0 | 8.0 | 0.00 | 0.00 | 0.00 | 69 | 1017.8 |
| 20260831195640 | 83 | 219 | 7.0 | 9.0 | 0.00 | 0.00 | 0.00 | 69 | 1018.1 |
| 20260831195135 | 84 | 234 | 6.0 | 8.0 | 0.00 | 0.00 | 0.00 | 69 | 1018.0 |
| 20260831194630 | 84 | 243 | 5.0 | 7.0 | 0.00 | 0.00 | 0.00 | 72 | 1018.1 |
| 20260831194126 | 83 | 244 | 5.0 | 8.0 | 0.00 | 0.00 | 0.00 | 71 | 1018.4 |
| 20260831193620 | 83 | 240 | 5.0 | 11.0 | 0.00 | 0.00 | 0.00 | 71 | 1018.3 |
| 20260831193116 | 83 | 228 | 4.0 | 6.0 | 0.00 | 0.00 | 0.00 | 74 | 1018.2 |
| 20260831192610 | 84 | 234 | 5.0 | 10.0 | 0.00 | 0.00 | 0.00 | 71 | 1018.3 |
| 20260831192106 | 84 | 216 | 4.0 | 8.0 | 0.00 | 0.00 | 0.00 | 72 | 1018.3 |
| 20260831191602 | 84 | 256 | 6.0 | 10.0 | 0.00 | 0.00 | 0.00 | 71 | 1018.5 |
| 20260831191057 | 84 | 242 | 9.0 | 10.0 | 0.00 | 0.00 | 0.00 | 71 | 1018.5 |
| 20260831190552 | 84 | 239 | 4.0 | 9.0 | 0.00 | 0.00 | 0.00 | 72 | 1018.5 |
| 20260831190050 | 83 | 253 | 7.0 | 9.0 | 0.00 | 0.00 | 0.00 | 72 | 1018.4 |
| 20260831185547 | 83 | 232 | 5.0 | 8.0 | 0.00 | 0.00 | 0.00 | 73 | 1018.3 |
| 20260831185043 | 82 | 240 | 6.0 | 9.0 | 0.00 | 0.00 | 0.00 | 71 | 1018.3 |
| 20260831184542 | 83 | 246 | 11.0 | 13.0 | 0.00 | 0.00 | 0.00 | 70 | 1018.1 |
| 20260831184038 | 83 | 203 | 9.0 | 10.0 | 0.00 | 0.00 | 0.00 | 72 | 1018.0 |
| 20260831183537 | 84 | 219 | 5.0 | 9.0 | 0.00 | 0.00 | 0.00 | 73 | 1018.1 |
| 20260831183037 | 84 | 209 | 5.0 | 9.0 | 0.00 | 0.00 | 0.00 | 72 | 1018.0 |
| 20260831182531 | 85 | 233 | 6.0 | 9.0 | 0.00 | 0.00 | 0.00 | 72 | 1018.2 |
| 20260831182027 | 83 | 238 | 6.0 | 8.0 | 0.00 | 0.00 | 0.00 | 74 | 1018.6 |
| 20260831181526 | 82 | 231 | 3.0 | 5.0 | 0.00 | 0.00 | 0.00 | 73 | 1018.7 |
| 20260831181026 | 83 | 207 | 6.0 | 8.0 | 0.00 | 0.00 | 0.00 | 74 | 1018.8 |
| 20260831180521 | 82 | 219 | 4.0 | 7.0 | 0.00 | 0.00 | 0.00 | 74 | 1018.9 |
| 20260831180016 | 82 | 223 | 4.0 | 7.0 | 0.00 | 0.00 | 0.00 | 74 | 1019.2 |
| 20260831175512 | 82 | 216 | 3.0 | 7.0 | 0.00 | 0.00 | 0.00 | 74 | 1019.2 |
| 20260831175009 | 82 | 220 | 5.0 | 6.0 | 0.00 | 0.00 | 0.00 | 74 | 1019.1 |
| 20260831174503 | 81 | 236 | 3.0 | 5.0 | 0.00 | 0.00 | 0.00 | 75 | 1019.3 |
| 20260831174003 | 81 | 242 | 3.0 | 3.0 | 0.00 | 0.00 | 0.00 | 76 | 1019.4 |
| 20260831173501 | 81 | 232 | 3.0 | 3.0 | 0.00 | 0.00 | 0.00 | 77 | 1019.4 |
| 20260831172957 | 80 | 248 | 3.0 | 5.0 | 0.00 | 0.00 | 0.00 | 77 | 1019.6 |
| 20260831172452 | 80 | 239 | 3.0 | 5.0 | 0.00 | 0.00 | 0.00 | 76 | 1019.4 |
| 20260831171948 | 81 | 236 | 3.0 | 3.0 | 0.00 | 0.00 | 0.00 | 76 | 1019.5 |
| 20260831171443 | 81 | 254 | 4.0 | 5.0 | 0.00 | 0.00 | 0.00 | 77 | 1019.5 |
| 20260831170940 | 81 | 233 | 4.0 | 5.0 | 0.00 | 0.00 | 0.00 | 76 | 1019.5 |
| 20260831170436 | 81 | 231 | 5.0 | 6.0 | 0.00 | 0.00 | 0.00 | 76 | 1019.5 |
| 20260831165933 | 81 | 234 | 3.0 | 5.0 | 0.00 | 0.00 | 0.00 | 76 | 1019.5 |
| 20260831165428 | 81 | 241 | 4.0 | 5.0 | 0.00 | 0.00 | 0.00 | 76 | 1019.8 |
| 20260831164924 | 81 | 231 | 3.0 | 6.0 | 0.00 | 0.00 | 0.00 | 77 | 1019.7 |
| 20260831164420 | 81 | 231 | 4.0 | 6.0 | 0.00 | 0.00 | 0.00 | 77 | 1019.9 |
| 20260831163915 | 81 | 244 | 5.0 | 7.0 | 0.00 | 0.00 | 0.00 | 76 | 1019.9 |
| 20260831163411 | 82 | 229 | 5.0 | 6.0 | 0.00 | 0.00 | 0.00 | 74 | 1019.9 |
| 20260831162909 | 82 | 224 | 4.0 | 7.0 | 0.00 | 0.00 | 0.00 | 73 | 1019.7 |
| 20260831162405 | 82 | 231 | 6.0 | 8.0 | 0.00 | 0.00 | 0.00 | 72 | 1019.6 |
| 20260831161903 | 81 | 243 | 6.0 | 7.0 | 0.00 | 0.00 | 0.00 | 75 | 1019.8 |
| 20260831161400 | 81 | 229 | 5.0 | 7.0 | 0.00 | 0.00 | 0.00 | 76 | 1019.5 |
| 20260831160855 | 81 | 226 | 5.0 | 9.0 | 0.00 | 0.00 | 0.00 | 74 | 1019.6 |
| 20260831160349 | 81 | 241 | 5.0 | 7.0 | 0.00 | 0.00 | 0.00 | 76 | 1019.6 |
| 20260831155845 | 81 | 235 | 4.0 | 7.0 | 0.00 | 0.00 | 0.00 | 75 | 1019.7 |
| 20260831155344 | 80 | 231 | 3.0 | 6.0 | 0.00 | 0.00 | 0.00 | 78 | 1019.8 |
| 20260831154840 | 80 | 233 | 5.0 | 7.0 | 0.00 | 0.00 | 0.00 | 78 | 1019.7 |
| 20260831154337 | 80 | 240 | 5.0 | 7.0 | 0.00 | 0.00 | 0.00 | 77 | 1019.6 |
| 20260831153835 | 80 | 222 | 5.0 | 9.0 | 0.00 | 0.00 | 0.00 | 77 | 1019.6 |
| 20260831153331 | 80 | 237 | 5.0 | 6.0 | 0.00 | 0.00 | 0.00 | 77 | 1019.6 |
| 20260831152827 | 80 | 227 | 5.0 | 6.0 | 0.00 | 0.00 | 0.00 | 76 | 1019.6 |
| 20260831152322 | 79 | 234 | 4.0 | 5.0 | 0.00 | 0.00 | 0.00 | 79 | 1019.7 |
| 20260831151817 | 79 | 232 | 4.0 | 6.0 | 0.00 | 0.00 | 0.00 | 80 | 1019.8 |
| 20260831151316 | 79 | 221 | 5.0 | 8.0 | 0.00 | 0.00 | 0.00 | 78 | 1019.6 |
| 20260831150812 | 79 | 231 | 4.0 | 6.0 | 0.00 | 0.00 | 0.00 | 80 | 1019.5 |
| 20260831150307 | 79 | 240 | 4.0 | 6.0 | 0.00 | 0.00 | 0.00 | 80 | 1019.7 |
| 20260831145806 | 79 | 251 | 5.0 | 7.0 | 0.00 | 0.00 | 0.00 | 79 | 1019.7 |
| 20260831145306 | 79 | 253 | 3.0 | 7.0 | 0.00 | 0.00 | 0.00 | 81 | 1019.6 |
| 20260831144758 | 79 | 217 | 6.0 | 7.0 | 0.00 | 0.00 | 0.00 | 80 | 1019.7 |
| 20260831144254 | 79 | 225 | 4.0 | 7.0 | 0.00 | 0.00 | 0.00 | 80 | 1019.8 |
| 20260831143754 | 79 | 220 | 6.0 | 8.0 | 0.00 | 0.00 | 0.00 | 79 | 1019.7 |
| 20260831143249 | 79 | 229 | 4.0 | 6.0 | 0.00 | 0.00 | 0.00 | 79 | 1019.6 |
| 20260831142744 | 79 | 232 | 5.0 | 7.0 | 0.00 | 0.00 | 0.00 | 78 | 1019.5 |
| 20260831142240 | 80 | 225 | 5.0 | 7.0 | 0.00 | 0.00 | 0.00 | 77 | 1019.4 |
| 20260831141739 | 80 | 232 | 4.0 | 7.0 | 0.00 | 0.00 | 0.00 | 78 | 1019.2 |
| 20260831141234 | 79 | 230 | 5.0 | 9.0 | 0.00 | 0.00 | 0.00 | 79 | 1019.3 |
| 20260831140734 | 79 | 227 | 5.0 | 8.0 | 0.00 | 0.00 | 0.00 | 78 | 1019.3 |
| 20260831140229 | 80 | 213 | 8.0 | 9.0 | 0.00 | 0.00 | 0.00 | 77 | 1019.2 |
| 20260831135726 | 80 | 231 | 6.0 | 10.0 | 0.00 | 0.00 | 0.00 | 78 | 1019.2 |
| 20260831135222 | 80 | 215 | 7.0 | 8.0 | 0.00 | 0.00 | 0.00 | 77 | 1019.2 |
| 20260831134718 | 80 | 248 | 7.0 | 9.0 | 0.00 | 0.00 | 0.00 | 77 | 1019.3 |
| 20260831134214 | 79 | 233 | 5.0 | 9.0 | 0.00 | 0.00 | 0.00 | 78 | 1019.1 |
| 20260831133713 | 78 | 224 | 7.0 | 7.0 | 0.00 | 0.00 | 0.00 | 79 | 1019.0 |
| 20260831133207 | 77 | 209 | 8.0 | 9.0 | 0.00 | 0.00 | 0.00 | 80 | 1019.1 |
| 20260831132703 | 77 | 238 | 6.0 | 9.0 | 0.00 | 0.00 | 0.00 | 81 | 1019.1 |
| 20260831132202 | 76 | 234 | 7.0 | 8.0 | 0.00 | 0.00 | 0.00 | 82 | 1018.9 |
| 20260831131657 | 76 | 212 | 7.0 | 9.0 | 0.00 | 0.00 | 0.00 | 82 | 1019.2 |
| 20260831131154 | 75 | 219 | 6.0 | 7.0 | 0.00 | 0.00 | 0.00 | 83 | 1019.1 |
| 20260831130649 | 75 | 214 | 7.0 | 7.0 | 0.00 | 0.00 | 0.00 | 84 | 1019.2 |
| 20260831130144 | 74 | 216 | 4.0 | 7.0 | 0.00 | 0.00 | 0.00 | 85 | 1019.0 |
| 20260831125642 | 74 | 223 | 4.0 | 6.0 | 0.00 | 0.00 | 0.00 | 86 | 1019.1 |
| 20260831125138 | 74 | 208 | 5.0 | 7.0 | 0.00 | 0.00 | 0.00 | 86 | 1018.9 |
| 20260831124634 | 74 | 218 | 5.0 | 6.0 | 0.00 | 0.00 | 0.00 | 86 | 1019.0 |
| 20260831124130 | 74 | 218 | 4.0 | 5.0 | 0.00 | 0.00 | 0.00 | 86 | 1019.0 |
| 20260831123629 | 73 | 224 | 5.0 | 6.0 | 0.00 | 0.00 | 0.00 | 86 | 1018.9 |
| 20260831123129 | 73 | 212 | 4.0 | 5.0 | 0.00 | 0.00 | 0.00 | 87 | 1018.8 |